カタログに戻る

STARLINK-2379

運用中通信VLEO
NORAD 47798·PAYLOAD·🇺🇸 United States

打ち上げ Mar 11, 2021 から Cape Canaveral Space Force Station

Loading…

次のパス (今後24時間)

TLE

最新Source: CelesTrak SupGP

元期: Sep 15, 2026, 02:00 UTC

1 47798C 21018M   26258.08381944 -.00016916  00000+0 -54392-3 0  2585
2 47798  53.1587  77.7485 0001289  85.4814 238.9137 15.31714234    19

AllMySatでSTARLINK-2379をリアルタイム追跡

Download on the App Store